Cloud_Cover
98 100 100 100 100 100 100 100 100 100 100 100 100 100 50 75 100 48 100 73 6 5 54 52 6 0 0 2 2 0 0 0 0 4 0 1 98 29 1 0 0 2 0
93 14 100 100 100 100 100 100 100 100 100 100 100 100 100 100 100 66 46 38 23 50 10 98 42 5 2 2 1 0 2 3 0 94 28 40 2 0 53 0 0 0 0
5 32 59 100 100 100 100 100 100 100 100 100 100 100 100 100 100 100 70 6 40 78 48 5 5 0 0 0 0 0 5 5 0 0 19 9 7 3 2 0 0 0 0
100 5 72 100 100 100 100 100 100 100 100 100 100 100 97 100 100 99 78 49 100 79 100 4 3 0 0 0 0 0 0 0 2 0 0 20 4 1 14 0 0 0 0
100 50 33 79 74 82 99 100 97 48 100 96 45 58 94 100 100 99 87 58 4 7 4 0 0 0 0 0 0 0 3 5 5 5 5 17 96 96 5 21 3 0 2
75 29 98 66 45 64 95 34 100 100 100 70 48 74 84 100 100 100 7 1 2 3 1 0 0 0 4 0 0 0 2 0 1 13 2 0 1 3 2 13 15 4 3
0 22 52 100 100 100 88 52 100 98 100 100 100 100 100 83 66 16 5 95 100 100 7 5 1 1 0 0 0 0 0 0 0 0 0 0 0 1 0 12 34 20 0
47 5 83 63 100 100 90 62 100 100 100 100 100 98 100 100 99 96 100 100 100 38 10 0 3 0 0 0 0 0 0 0 0 0 0 0 0 0 0 7 20 9 2
96 100 22 92 100 90 100 100 100 100 100 100 100 100 100 100 100 100 100 90 63 33 5 4 0 0 0 0 0 0 0 0 0 0 0 0 0 0 0 0 5 15 83
100 100 100 100 96 19 6 46 50 97 100 100 100 100 100 69 62 13 5 5 18 42 0 0 0 0 0 0 0 0 0 0 0 0 0 0 0 1 1 5 5 5 44
100 100 100 100 100 100 100 100 100 100 100 100 78 66 85 10 14 13 2 0 0 0 0 0 0 0 0 0 0 0 0 0 0 0 0 2 3 0 5 5 5 5 96
100 94 98 100 100 100 100 100 100 100 100 64 72 26 5 15 6 0 0 0 0 0 0 0 0 0 0 0 0 0 0 0 0 0 0 5 5 5 5 5 5 8 12
100 100 100 100 100 100 100 96 98 55 7 4 3 2 1 5 0 2 4 3 0 0 0 0 0 0 0 0 0 0 0 0 0 0 5 5 5 5 5 5 5 5 21
4 59 100 100 92 54 85 75 33 5 5 5 5 5 4 5 0 0 0 0 0 0 0 0 0 0 0 0 0 0 0 0 0 0 5 5 5 18 5 8 17 66 60
0 3 1 1 28 62 86 39 5 5 5 5 1 0 0 0 0 0 0 0 0 0 0 0 0 0 0 0 0 0 0 1 4 5 5 5 5 5 5 25 36 74 100
0 0 5 39 39 5 1 0 0 0 0 0 0 0 0 0 0 0 0 0 0 0 0 0 0 0 0 0 0 0 3 5 5 5 5 5 5 5 5 5 40 100 100
1 0 3 5 5 5 5 5 0 0 0 0 0 0 0 0 0 0 0 0 0 0 0 0 0 0 0 0 0 0 1 5 5 5 5 5 5 5 5 78 100 100 100
1 5 3 0 2 5 5 0 0 0 0 0 0 0 0 0 0 0 0 0 0 0 0 0 0 0 0 0 0 0 2 5 5 5 5 5 5 5 16 100 100 100 100
0 0 0 5 5 5 5 5 3 0 0 0 0 0 0 0 0 0 0 0 0 0 0 0 0 0 0 0 4 3 5 5 5 5 5 5 5 5 6 98 100 100 100
1 0 0 2 5 5 5 5 2 0 0 0 0 0 0 0 0 0 0 0 0 0 0 0 0 0 0 3 3 5 5 5 5 5 5 5 5 5 8 71 100 100 100
0 0 0 3 5 4 4 0 0 0 5 0 0 0 0 0 0 0 0 0 0 0 0 0 0 0 0 0 2 2 5 5 8 6 5 5 5 5 81 100 100 100 100
4 0 0 0 0 0 5 5 5 5 5 4 0 0 0 0 0 0 0 0 0 0 0 0 4 5 2 0 0 5 5 5 7 5 5 5 5 74 100 100 100 100 100
34 0 0 0 0 0 5 5 0 5 5 5 5 5 0 0 0 0 0 0 0 0 0 1 5 5 5 0 1 3 4 5 5 5 5 5 5 95 100 100 100 100 100
100 94 7 0 0 0 0 0 1 5 5 4 2 5 0 0 0 0 0 0 0 0 0 0 5 5 4 3 5 5 5 5 5 23 56 5 79 9 82 100 100 100 100
26 100 100 11 2 0 0 0 5 5 2 0 3 4 0 0 0 0 0 0 0 0 0 0 0 1 1 5 5 9 5 6 72 99 95 5 100 100 100 77 100 100 100
84 100 100 100 39 5 0 0 5 5 4 0 0 0 0 0 0 0 0 0 0 0 0 0 0 0 4 5 3 2 5 5 57 70 100 63 84 100 100 97 100 100 100